カタログに戻る

CZ-6A DEB

運用中PO
NORAD 61074·DEBRIS·🇨🇳 China

打ち上げ Aug 6, 2024 から Taiyuan Satellite Launch Center

Loading…

次のパス (今後24時間)

TLE

最新Source: Space-Track

元期: Sep 14, 2026, 17:15 UTC

1 61074U 24140MQ  26257.71919758  .00001630  00000-0  31694-3 0  9994
2 61074  88.9859 258.3513 0123712 315.6770  43.4585 14.57884715109604

AllMySatでCZ-6A DEBをリアルタイム追跡

Download on the App Store